Location: Gudip?du
(17.0263°N, 80.8301°E)
Time: 07:13:12
(UTC+00:00)

Resurs 1-3 - Pass Details

Date: 03 August 2024
Orbit: 619 x 622 km, 97.7° (Epoch: 10 September)

Event Time Altitude Azimuth Distance (km) Brightness Sun altitude
Exits shadow 14:15:15 - 175° (S) 2,404 6.3 -15.7°
Reaches altitude 10° 14:16:16 10° 177° (S) 1,987 5.9 -16.0°
Maximum altitude 14:20:33 65° 259° (W) 686 3.9 -16.9°
Drops below altitude 10° 14:24:51 10° 341° (NNW) 1,992 6.8 -17.8°
Sets 14:27:04 0° 344° (NNW) 2,899 7.6 -18.3°
